CEB456 RPVI-RPLL

Flight info

Callsign CEB456
Flight time N/A
Altitude 30000
Route LAMBO1N LAMBO B472 IBAGO IBAGO3R
Aircraft A20N/M-V/N

Departure

Time 2026-04-22 13:14
Airport Iloilo International Airport (RPVI)

Arrival

Time N/A
Airport Ninoy Aquino International Airport (RPLL)
Time Latitude Longitude Altitude Speed Heading
2026-04-22 12:33 10.83164 122.49662 175 ft 0 kts 110°
2026-04-22 13:04 10.83165 122.49659 175 ft 2 kts 110°
2026-04-22 13:05 10.83170 122.49645 175 ft 2 kts 110°
2026-04-22 13:05 10.83175 122.49631 175 ft 2 kts 110°
2026-04-22 13:05 10.83180 122.49616 175 ft 2 kts 110°
2026-04-22 13:05 10.83189 122.49603 175 ft 2 kts 142°
2026-04-22 13:06 10.83202 122.49596 175 ft 2 kts 168°
2026-04-22 13:06 10.83217 122.49596 175 ft 1 kts 194°
2026-04-22 13:06 10.83223 122.49598 175 ft 1 kts 203°
2026-04-22 13:06 10.83226 122.49599 175 ft 0 kts 201°
2026-04-22 13:09 10.83223 122.49598 175 ft 1 kts 200°
2026-04-22 13:09 10.83186 122.49584 175 ft 9 kts 200°
2026-04-22 13:10 10.83101 122.49552 175 ft 14 kts 200°
2026-04-22 13:10 10.83066 122.49540 175 ft 5 kts 200°
2026-04-22 13:10 10.83032 122.49514 175 ft 7 kts 241°
2026-04-22 13:10 10.83036 122.49457 175 ft 9 kts 287°
2026-04-22 13:11 10.83061 122.49389 175 ft 11 kts 289°
2026-04-22 13:11 10.83089 122.49307 176 ft 12 kts 282°
2026-04-22 13:11 10.83038 122.49239 176 ft 14 kts 195°
2026-04-22 13:11 10.82933 122.49200 176 ft 18 kts 200°
2026-04-22 13:12 10.82796 122.49149 176 ft 22 kts 199°
2026-04-22 13:12 10.82633 122.49089 176 ft 26 kts 200°
2026-04-22 13:12 10.82447 122.49021 176 ft 29 kts 199°
2026-04-22 13:12 10.82295 122.48985 176 ft 17 kts 171°
2026-04-22 13:13 10.82270 122.48958 176 ft 6 kts 356°
2026-04-22 13:13 10.82319 122.48972 176 ft 9 kts 19°
2026-04-22 13:13 10.82501 122.49040 176 ft 62 kts 20°
2026-04-22 13:13 10.83153 122.49283 176 ft 132 kts 20°
2026-04-22 13:14 10.84182 122.49667 381 ft 168 kts 21°
2026-04-22 13:14 10.85267 122.50060 1103 ft 168 kts 22°
2026-04-22 13:14 10.86365 122.50472 1870 ft 168 kts 22°
2026-04-22 13:14 10.87097 122.50746 2247 ft 174 kts 23°
2026-04-22 13:15 10.88711 122.51350 2853 ft 196 kts 22°
2026-04-22 13:15 10.90043 122.51847 3312 ft 213 kts 22°
2026-04-22 13:15 10.91542 122.52406 3679 ft 238 kts 21°
2026-04-22 13:15 10.93218 122.52715 4111 ft 261 kts 355°
2026-04-22 13:16 10.94939 122.52000 4678 ft 278 kts 324°
2026-04-22 13:16 10.96439 122.50742 5531 ft 280 kts 322°
2026-04-22 13:16 10.97451 122.49916 6101 ft 282 kts 322°
2026-04-22 13:16 10.99532 122.48261 7205 ft 286 kts 322°
2026-04-22 13:17 11.01120 122.47009 7991 ft 290 kts 322°
2026-04-22 13:17 11.02708 122.45760 8757 ft 294 kts 322°
2026-04-22 13:17 11.04326 122.44488 9533 ft 296 kts 322°
2026-04-22 13:17 11.05961 122.43201 10283 ft 299 kts 322°
2026-04-22 13:18 11.07636 122.41881 10780 ft 311 kts 321°
2026-04-22 13:18 11.09419 122.40475 11151 ft 327 kts 321°
2026-04-22 13:18 11.10646 122.39507 11531 ft 332 kts 321°
2026-04-22 13:18 11.13090 122.37585 12424 ft 336 kts 321°
2026-04-22 13:19 11.14995 122.36137 13089 ft 338 kts 324°
2026-04-22 13:19 11.17016 122.34877 13706 ft 342 kts 330°
2026-04-22 13:19 11.19168 122.33825 14282 ft 346 kts 335°
2026-04-22 13:19 11.21407 122.32846 14847 ft 350 kts 336°
2026-04-22 13:20 11.23690 122.31866 15398 ft 354 kts 336°
2026-04-22 13:20 11.25976 122.30884 15921 ft 358 kts 336°
2026-04-22 13:20 11.28308 122.29881 16442 ft 362 kts 336°
2026-04-22 13:20 11.30621 122.28880 16956 ft 365 kts 336°
2026-04-22 13:21 11.35403 122.26814 17995 ft 370 kts 336°
2026-04-22 13:21 11.37006 122.26119 18334 ft 372 kts 337°
2026-04-22 13:21 11.40197 122.24737 19008 ft 375 kts 337°
2026-04-22 13:22 11.41973 122.23967 19377 ft 377 kts 337°
2026-04-22 13:22 11.44415 122.22909 19870 ft 379 kts 337°
2026-04-22 13:22 11.46838 122.21858 20355 ft 381 kts 337°
2026-04-22 13:22 11.49307 122.20788 20850 ft 383 kts 337°
2026-04-22 13:23 11.51764 122.19722 21344 ft 385 kts 337°
2026-04-22 13:23 11.54262 122.18639 21837 ft 387 kts 337°
2026-04-22 13:23 11.56774 122.17550 22320 ft 389 kts 337°
2026-04-22 13:23 11.59281 122.16461 22789 ft 391 kts 337°
2026-04-22 13:24 11.61799 122.15369 23242 ft 394 kts 337°
2026-04-22 13:24 11.64363 122.14256 23688 ft 397 kts 337°
2026-04-22 13:24 11.66930 122.13142 24142 ft 400 kts 337°
2026-04-22 13:24 11.69515 122.12019 24575 ft 403 kts 337°
2026-04-22 13:25 11.72099 122.10896 25002 ft 407 kts 337°
2026-04-22 13:25 11.74740 122.09747 25428 ft 410 kts 337°
2026-04-22 13:25 11.77395 122.08594 25849 ft 413 kts 336°
2026-04-22 13:25 11.79256 122.07785 26136 ft 415 kts 336°
2026-04-22 13:26 11.82821 122.06233 26665 ft 419 kts 336°
2026-04-22 13:26 11.85526 122.05057 27085 ft 422 kts 336°
2026-04-22 13:26 11.88231 122.03879 27625 ft 420 kts 336°
2026-04-22 13:26 11.90924 122.02708 28207 ft 418 kts 336°
2026-04-22 13:27 11.93635 122.01528 28659 ft 419 kts 336°
2026-04-22 13:27 11.96316 122.00359 29024 ft 421 kts 336°
2026-04-22 13:27 11.99022 121.99181 29410 ft 423 kts 336°
2026-04-22 13:27 12.01762 121.97987 29778 ft 424 kts 336°
2026-04-22 13:28 12.04456 121.96813 29856 ft 426 kts 336°
2026-04-22 13:28 12.09944 121.94419 29863 ft 425 kts 336°
2026-04-22 13:29 12.15396 121.92040 29866 ft 425 kts 336°
2026-04-22 13:29 12.20890 121.89642 29867 ft 425 kts 336°
2026-04-22 13:30 12.26332 121.87264 29876 ft 425 kts 336°
2026-04-22 13:30 12.31771 121.84887 29883 ft 425 kts 336°
2026-04-22 13:31 12.37246 121.82493 29884 ft 425 kts 336°
2026-04-22 13:31 12.42697 121.80114 29885 ft 424 kts 336°
2026-04-22 13:32 12.48135 121.77737 29885 ft 424 kts 336°
2026-04-22 13:32 12.53614 121.75339 29888 ft 424 kts 336°
2026-04-22 13:33 12.59062 121.72971 29893 ft 424 kts 335°
2026-04-22 13:33 12.64482 121.70583 29891 ft 424 kts 335°
2026-04-22 13:34 12.69944 121.68178 29896 ft 424 kts 335°
2026-04-22 13:34 12.75393 121.65781 29895 ft 424 kts 335°
2026-04-22 13:35 12.86143 121.61059 29896 ft 424 kts 335°
2026-04-22 13:36 12.91618 121.58654 29901 ft 424 kts 335°